Weather History for KNGP - April, 2013

Change the Weather History Date:

Monday, April 8, 2013

  Actual Average Record
Temperature  
Mean Temperature 76 °F -  
Max Temperature 82 °F 76 °F 90 °F (1998)
Min Temperature 71 °F 62 °F 42 °F (2007)
Cooling Degree Days 11    
Growing Degree Days 26 (Base 50)    
Moisture  
Dew Point 69 °F    
Average Humidity 82    
Maximum Humidity 94    
Minimum Humidity 67    
Precipitation  
Precipitation 0.00 in - - ()
Sea Level Pressure  
Sea Level Pressure 29.75 in    
Wind  
Wind Speed 18 mph (SE)    
Max Wind Speed 28 mph    
Max Gust Speed 36 mph    
Visibility 9 miles    
Events      
Averages and records for this station are not official NWS values.
T = Trace of Precipitation, MM = Missing Value Source: NWS Daily Summary

Daily Weather History Graph

Daily Weather History Graph

Search for Another Location

Airport or City:

Trip Planner

Search our weather history database for the weather conditions in past years. The results will help you decide how hot, cold, wet, or windy it might be!

Date:

Astronomy

Apr. 08, 2013 Rise Set
Actual Time 7:11 AM CDT 7:50 PM CDT
Civil Twilight 6:47 AM CDT 8:14 PM CDT
Nautical Twilight 6:20 AM CDT 8:42 PM CDT
Astronomical Twilight 5:51 AM CDT 9:10 PM CDT
Moon 5:54 AM CDT (4/8) 6:30 PM CDT (4/8)
Length of Visible Light 13h 26m
Length of Day
12h 39m
Waning Crescent, 3% of the Moon is Illuminated
Apr 8
Waning Crescent
Apr 10
New
Apr 18
First Quarter
Apr 25
Full
May 2
Last Quarter

Hourly Weather History & Observations

Time (CDT) Temp. Heat Index Dew Point Humidity Pressure Visibility Wind Dir Wind Speed Gust Speed Precip Events Conditions
12:13 AM 73.4 °F - 66.2 °F 78% 29.82 in 10.0 mi SSE 18.4 mph 26.5 mph N/A   Scattered Clouds
12:25 AM 73.4 °F - 66.2 °F 78% 29.82 in 10.0 mi SSE 16.1 mph 29.9 mph N/A   Mostly Cloudy
12:51 AM 73.4 °F - 66.2 °F 78% 29.82 in 10.0 mi SSE 17.3 mph 26.5 mph N/A   Overcast
12:56 AM 73.0 °F - 66.9 °F 81% 29.82 in 10.0 mi SSE 18.4 mph 25.3 mph N/A   Overcast
1:56 AM 73.0 °F - 68.0 °F 84% 29.80 in 10.0 mi SSE 18.4 mph 26.5 mph N/A   Partly Cloudy
2:56 AM 72.0 °F - 68.0 °F 87% 29.77 in 10.0 mi SSE 19.6 mph 26.5 mph N/A   Clear
3:06 AM 71.6 °F - 68.0 °F 88% 29.76 in 10.0 mi SSE 21.9 mph 27.6 mph N/A   Partly Cloudy
3:34 AM 71.6 °F - 68.0 °F 88% 29.76 in 10.0 mi SSE 17.3 mph 24.2 mph N/A   Mostly Cloudy
3:56 AM 72.0 °F - 68.0 °F 87% 29.75 in 10.0 mi SSE 16.1 mph 26.5 mph N/A   Overcast
4:53 AM 71.6 °F - 68.0 °F 88% 29.74 in 10.0 mi SSE 17.3 mph - N/A   Mostly Cloudy
4:56 AM 71.1 °F - 68.0 °F 90% 29.74 in 10.0 mi SSE 15.0 mph - N/A   Mostly Cloudy
5:05 AM 71.6 °F - 68.0 °F 88% 29.74 in 10.0 mi SSE 16.1 mph 25.3 mph N/A   Scattered Clouds
5:39 AM 71.6 °F - 68.0 °F 88% 29.74 in 10.0 mi SSE 17.3 mph - N/A   Mostly Cloudy
5:56 AM 71.1 °F - 68.0 °F 90% 29.75 in 10.0 mi SE 15.0 mph - N/A   Overcast
6:04 AM 71.6 °F - 68.0 °F 88% 29.75 in 10.0 mi SSE 13.8 mph - N/A   Overcast
6:56 AM 72.0 °F - 68.0 °F 87% 29.76 in 7.0 mi SSE 10.4 mph - N/A   Overcast
7:33 AM 71.6 °F - 68.0 °F 88% 29.77 in 5.0 mi SE 11.5 mph - N/A   Overcast
7:56 AM 72.0 °F - 68.0 °F 87% 29.78 in 6.0 mi SE 11.5 mph - N/A   Overcast
8:56 AM 73.0 °F - 68.0 °F 84% 29.80 in 6.0 mi SSE 10.4 mph - N/A   Haze
9:36 AM 73.4 °F - 69.8 °F 88% 29.81 in 6.0 mi SSE 13.8 mph - N/A   Haze
9:56 AM 75.0 °F - 68.0 °F 79% 29.81 in 6.0 mi SSE 15.0 mph - N/A   Haze
10:56 AM 75.0 °F - 69.1 °F 82% 29.81 in 6.0 mi SSE 19.6 mph 23.0 mph N/A   Haze
11:45 AM 80.6 °F 83.9 °F 69.8 °F 70% 29.81 in 7.0 mi SSE 16.1 mph 26.5 mph N/A   Mostly Cloudy
11:56 AM 80.1 °F 82.9 °F 69.1 °F 69% 29.81 in 7.0 mi SSE 19.6 mph 29.9 mph N/A   Mostly Cloudy
12:40 PM 80.6 °F 83.9 °F 69.8 °F 70% 29.79 in 7.0 mi SSE 20.7 mph 27.6 mph N/A   Overcast
12:56 PM 81.0 °F 84.1 °F 69.1 °F 67% 29.78 in 7.0 mi SSE 18.4 mph 28.8 mph N/A   Overcast
1:56 PM 80.1 °F 82.9 °F 69.1 °F 69% 29.75 in 10.0 mi SE 21.9 mph 29.9 mph N/A   Overcast
2:56 PM 80.1 °F 82.9 °F 69.1 °F 69% 29.72 in 10.0 mi SE 24.2 mph 33.4 mph N/A   Overcast
3:56 PM 81.0 °F 84.1 °F 69.1 °F 67% 29.69 in 8.0 mi SE 27.6 mph 35.7 mph N/A   Mostly Cloudy
4:56 PM 79.0 °F - 69.1 °F 72% 29.68 in 9.0 mi SE 24.2 mph - N/A   Mostly Cloudy
5:56 PM 78.1 °F - 69.1 °F 74% 29.67 in 10.0 mi SE 23.0 mph 31.1 mph N/A   Scattered Clouds
6:56 PM 75.9 °F - 70.0 °F 82% 29.68 in 9.0 mi ESE 20.7 mph 26.5 mph N/A   Mostly Cloudy
7:17 PM 75.2 °F - 69.8 °F 83% 29.69 in 9.0 mi SE 20.7 mph 27.6 mph N/A   Overcast
7:56 PM 73.9 °F - 70.0 °F 87% 29.69 in 7.0 mi SE 18.4 mph - N/A   Mostly Cloudy
8:42 PM 73.4 °F - 69.8 °F 88% 29.71 in 9.0 mi SE 18.4 mph 24.2 mph N/A   Mostly Cloudy
8:56 PM 73.9 °F - 70.0 °F 87% 29.71 in 9.0 mi SE 17.3 mph - N/A   Mostly Cloudy
9:56 PM 73.9 °F - 71.1 °F 91% 29.71 in 8.0 mi SE 21.9 mph - N/A   Mostly Cloudy
10:29 PM 73.4 °F - 71.6 °F 94% 29.72 in 8.0 mi SE 19.6 mph - N/A   Mostly Cloudy
10:56 PM 73.9 °F - 71.1 °F 91% 29.73 in 9.0 mi SE 20.7 mph - N/A   Mostly Cloudy
11:11 PM 73.4 °F - 69.8 °F 88% 29.73 in 9.0 mi SE 18.4 mph 26.5 mph N/A   Overcast
11:56 PM 73.9 °F - 70.0 °F 87% 29.73 in 9.0 mi SE 21.9 mph 26.5 mph N/A   Overcast